Home > Weather > Kitchener > Past weeks

Flag for Canada Weather for the Past 2 Weeks in Kitchener, Ontario, Canada

Now
9 °F

Sunny.


Feels Like: -7 °F
Forecast: 5 / 12 °F
Wind: 13 mph from Northwest

Location: Waterloo Well

Current Time: Feb 11, 2016 at 12:20:07 PM

Latest Report: Feb 11, 2016 at 12:00 PM


Visibility: 9 mi

Pressure: 30.11 "Hg

Humidity: 61%

Dew point: -2 °F

Location of KitchenerLocation

Historic Weather in Kitchener — Graph

°F

Kitchener Temperature Yesterday

Maximum temperature yesterday: 27 °F (at 12:01 AM)
Minimum temperature yesterday: 9 °F (at 11:57 PM)
Average temperature yesterday: 20 °F

High & Low Weather Summary for the Past Weeks

 TemperatureHumidityPressure
High57 °F (Feb 3, 1:52 PM)100% (Jan 31, 2:00 AM)30.34 "Hg (Jan 31, 2:00 AM)
Low1 °F (Feb 11, 4:00 AM)44% (Feb 3, 3:00 PM)29.46 "Hg (Jan 31, 11:00 PM)
Average30 °F82%29.85 "Hg
* Reported Jan 27 11:00 AM — Feb 11 11:00 AM, Kitchener, Weather by CustomWeather, © 2016

Note: Actual official high and low records may vary slightly from our data, if they occured in-between our weather recording intervals... More about our weather records

Advertising

Kitchener Weather History for the Previous 24 Hours

 ConditionsComfort  
Time TempWeatherWind HumidityBarometerVisibility
11:00 AM
Thu, Feb 11
9 °FSunny.13 mph56%30.09 "Hg9 mi
10:00 AM7 °FSunny.12 mph61%30.07 "Hg9 mi
9:00 AM5 °FSunny.9 mph66%30.06 "Hg9 mi
8:00 AM1 °FSunny.8 mph71%30.03 "Hg9 mi
7:00 AM1 °FClear.12 mph78%30.00 "Hg9 mi
6:00 AM3 °FClear.17 mph72%29.98 "Hg9 mi
5:00 AM3 °FClear.12 mph78%29.96 "Hg9 mi
4:00 AM1 °FClear.9 mph85%29.93 "Hg9 mi
3:00 AM3 °FClear.8 mph85%29.92 "Hg9 mi
2:00 AM5 °FOvercast.10 mph78%29.89 "Hg9 mi
1:00 AM5 °FPassing clouds.7 mph78%29.89 "Hg9 mi
12:00 AM9 °FPassing clouds.12 mph78%29.87 "Hg9 mi
11:57 PM
Wed, Feb 10
9 °FPassing clouds.9 mph78%29.87 "Hg9 mi
11:00 PM12 °FLight snow. Overcast.13 mph85%29.85 "Hg1 mi
10:00 PM12 °FPassing clouds.14 mph79%29.84 "Hg9 mi
9:00 PM12 °FOvercast.12 mph79%29.84 "Hg9 mi
8:00 PM12 °FClear.12 mph79%29.83 "Hg9 mi
7:00 PM14 °FLight snow. Passing clouds.16 mph79%29.82 "Hg9 mi
6:00 PM16 °FLight snow. Mostly cloudy.15 mph79%29.80 "Hg5 mi
5:00 PM16 °FLight snow. Mostly cloudy.10 mph79%29.77 "Hg9 mi
4:58 PM16 °FLight snow. Mostly cloudy.13 mph79%29.77 "Hg9 mi
4:04 PM18 °FCloudy.15 mph68%29.74 "Hg9 mi
3:00 PM19 °FCloudy.17 mph68%29.70 "Hg9 mi
2:01 PM21 °FLight snow. Cloudy.16 mph74%29.68 "Hg8 mi
1:00 PM21 °FLight snow. Partly sunny.12 mph74%29.68 "Hg9 mi
12:57 PM21 °FLight snow. Partly sunny.10 mph74%29.68 "Hg9 mi
12:00 PM23 °FMostly cloudy.14 mph68%29.68 "Hg9 mi
Weather by CustomWeather, © 2016

See weather overviewHow to use our weather pages